Simultaneous Nadir Overpasses (SNOs) Predictions

Prediction of SNOs between GOES-16 and NOAA-20 Satellite Orbit:

Table of predicted SNOs for the next 14.0 days since TLE Epoch: 7/29/2023
Index Date Time (GOES-16) GOES-16 Lat,Lon NOAA-20 Lat,Lon Distance(km) Time Diff (sec)
1 07/29/2023 18:24:13 0.02, -75.21 0.23, -74.34 99.31 80
2 08/01/2023 06:24:36 -0.01, -75.21 -0.05, -75.08 15.50 80
3 08/03/2023 18:27:48 0.00, -75.22 -0.11, -75.86 71.80 80
4 08/04/2023 18:11:43 0.00, -75.23 0.86, -71.32 445.59 80
5 08/06/2023 06:33:31 -0.00, -75.25 0.28, -76.60 153.09 80
6 08/07/2023 06:12:06 -0.00, -75.27 -0.74, -72.07 364.63 80
7 08/08/2023 18:34:02 0.00, -75.29 -0.49, -77.37 237.93 80
8 08/09/2023 18:17:57 -0.00, -75.30 0.54, -72.84 280.15 80
9 08/11/2023 06:39:45 0.01, -75.33 0.60, -78.12 317.53 80
